Location: Helion Bumpstead
(52.0500°N, 0.4000°E)
Time: 09:09:20
(UTC+00:00)

Cosmos 2360 Rocket - Pass Details

Date: 15 November 2025
Orbit: 833 x 843 km, 71.0° (Epoch: 14 December)

Event Time Altitude Azimuth Distance (km) Brightness Sun altitude
Exits shadow 03:52:47 20° 0° (N) 1,879 4.1 -31.4°
Drops below altitude 10° 03:54:58 10° 18° (NNE) 2,473 4.9 -31.0°
Sets 03:57:48 0° 31° (NNE) 3,409 5.9 -30.6°
